Tracking 18984 objects as of 24-Feb-2018
HD Live streaming from Space Station
objects crossing your sky now

RADUGA 22

Track RADUGA 22 now!
RADUGA 22 is classified as:


NORAD ID: 19596
Int'l Code: 1988-095A
Perigee: 35,763.5 km
Apogee: 35,777.4 km
Inclination: 14.7 °
Period: 1,434.9 minutes
Semi major axis: 42141 km
RCS: 5.0118 m2 (large)
Launch date: October 20, 1988
Source: Commonwealth of Independent States (former USSR) (CIS)
Launch site: TYURATAM MISSILE AND SPACE COMPLEX (TTMTR)
aabbcc
Your satellite tracking list
Your tracking list is empty




NASA's NSSDC Master Catalog

Two Line Element Set (TLE):
1 19596U 88095A   18053.97379911  .00000118  00000-0  00000+0 0  9992
2 19596  14.7383 355.6675 0001642   5.0908 180.4914  1.00354932 91251
Source of the keplerian elements: AFSPC